TimeCDT,TemperatureF,Dew PointF,Humidity,Sea Level PressureIn,VisibilityMPH,Wind Direction,Wind SpeedMPH,Gust SpeedMPH,PrecipitationIn,Events,Conditions,WindDirDegrees,DateUTC
12:15 AM,75.6,72.0,89,30.07,7.0,Calm,Calm,-,N/A,,Clear,0,2013-08-23 05:15:00
12:35 AM,75.2,71.8,89,30.07,7.0,Calm,Calm,-,N/A,,Clear,0,2013-08-23 05:35:00
12:55 AM,73.6,70.9,91,30.06,5.0,Calm,Calm,-,N/A,,Clear,0,2013-08-23 05:55:00
1:15 AM,73.4,70.9,92,30.06,5.0,Calm,Calm,-,N/A,Thunderstorm,Clear,0,2013-08-23 06:15:00
1:35 AM,73.0,70.7,92,30.05,5.0,Calm,Calm,-,N/A,,Clear,0,2013-08-23 06:35:00
1:55 AM,73.8,71.2,92,30.05,5.0,Calm,Calm,-,N/A,,Clear,0,2013-08-23 06:55:00
2:15 AM,74.3,71.6,91,30.05,5.0,Calm,Calm,-,N/A,,Clear,0,2013-08-23 07:15:00
2:35 AM,74.3,71.8,92,30.05,5.0,Calm,Calm,-,N/A,,Clear,0,2013-08-23 07:35:00
2:55 AM,74.3,71.6,91,30.05,5.0,Calm,Calm,-,N/A,,Clear,0,2013-08-23 07:55:00
3:15 AM,74.5,72.0,92,30.05,5.0,NE,4.6,-,N/A,Thunderstorm,Clear,50,2013-08-23 08:15:00
3:35 AM,75.4,71.6,88,30.07,7.0,NNE,6.9,-,N/A,,Clear,20,2013-08-23 08:35:00
3:55 AM,74.8,71.1,88,30.08,7.0,NE,4.6,-,N/A,Thunderstorm,Clear,40,2013-08-23 08:55:00
4:15 AM,74.3,70.5,88,30.08,10.0,NNE,8.1,-,N/A,,Clear,20,2013-08-23 09:15:00
4:35 AM,74.3,70.0,86,30.09,10.0,NNE,4.6,-,N/A,,Clear,30,2013-08-23 09:35:00
4:55 AM,73.9,69.8,87,30.08,10.0,NE,3.5,-,N/A,Thunderstorm,Thunderstorm,40,2013-08-23 09:55:00
5:15 AM,73.9,69.6,86,30.08,10.0,NE,3.5,-,N/A,,Clear,50,2013-08-23 10:15:00
5:35 AM,73.9,69.4,86,30.09,10.0,NE,3.5,-,N/A,Thunderstorm,Clear,50,2013-08-23 10:35:00
5:55 AM,74.3,69.3,84,30.10,10.0,NE,5.8,-,N/A,,Clear,40,2013-08-23 10:55:00
6:15 AM,73.6,69.3,86,30.09,10.0,East,3.5,-,N/A,Thunderstorm,Clear,80,2013-08-23 11:15:00
6:35 AM,72.7,69.4,90,30.08,10.0,East,3.5,-,0.02,,Clear,100,2013-08-23 11:35:00
6:55 AM,72.7,69.8,91,30.08,7.0,Calm,Calm,-,0.02,,Clear,0,2013-08-23 11:55:00
7:15 AM,72.5,69.8,91,30.09,5.0,Calm,Calm,-,N/A,,Clear,0,2013-08-23 12:15:00
7:35 AM,72.5,70.0,92,30.10,5.0,Calm,Calm,-,N/A,,Clear,0,2013-08-23 12:35:00
7:55 AM,73.0,70.3,91,30.10,5.0,Calm,Calm,-,N/A,,Clear,0,2013-08-23 12:55:00
8:15 AM,74.7,70.9,88,30.11,10.0,Calm,Calm,-,N/A,,Clear,0,2013-08-23 13:15:00
8:35 AM,76.5,71.1,83,30.11,10.0,ENE,3.5,-,N/A,,Clear,70,2013-08-23 13:35:00
8:55 AM,77.5,71.2,81,30.11,10.0,ENE,4.6,-,N/A,,Clear,70,2013-08-23 13:55:00
9:15 AM,78.8,71.4,78,30.11,10.0,Calm,Calm,-,N/A,,Clear,0,2013-08-23 14:15:00
9:35 AM,80.6,72.1,75,30.11,10.0,East,4.6,-,N/A,,Clear,80,2013-08-23 14:35:00
9:55 AM,81.1,72.0,74,30.11,10.0,East,4.6,-,N/A,,Clear,90,2013-08-23 14:55:00
10:15 AM,82.4,71.8,70,30.12,10.0,NE,3.5,-,N/A,,Clear,50,2013-08-23 15:15:00
10:35 AM,83.5,72.3,69,30.12,10.0,NNE,6.9,-,N/A,,Clear,30,2013-08-23 15:35:00
10:55 AM,83.5,71.4,67,30.12,10.0,Calm,Calm,-,N/A,,Clear,0,2013-08-23 15:55:00
11:15 AM,84.0,71.2,65,30.12,10.0,North,4.6,-,N/A,,Clear,10,2013-08-23 16:15:00
11:35 AM,84.6,71.1,64,30.12,10.0,NNE,6.9,-,N/A,,Clear,30,2013-08-23 16:35:00
11:55 AM,84.9,70.5,62,30.12,10.0,North,3.5,-,N/A,,Clear,10,2013-08-23 16:55:00
12:15 PM,86.0,70.2,59,30.11,10.0,NNE,3.5,-,N/A,,Clear,20,2013-08-23 17:15:00
12:37 PM,87.8,69.8,55,30.10,10.0,Calm,Calm,-,N/A,,Clear,0,2013-08-23 17:37:00
12:55 PM,87.4,67.8,52,30.10,10.0,Calm,Calm,-,N/A,,Clear,0,2013-08-23 17:55:00
1:15 PM,88.2,68.2,51,30.10,10.0,ENE,4.6,-,N/A,,Clear,60,2013-08-23 18:15:00
1:35 PM,88.2,68.2,51,30.10,10.0,ENE,5.8,-,N/A,,Clear,60,2013-08-23 18:35:00
1:55 PM,89.1,68.4,50,30.09,10.0,ENE,5.8,-,N/A,,Clear,70,2013-08-23 18:55:00
2:15 PM,89.6,67.6,48,30.09,10.0,Calm,Calm,-,N/A,,Clear,0,2013-08-23 19:15:00
2:35 PM,89.8,68.2,49,30.09,10.0,Calm,Calm,-,N/A,,Clear,0,2013-08-23 19:35:00
2:55 PM,90.0,69.3,50,30.08,10.0,ENE,3.5,-,N/A,,Clear,60,2013-08-23 19:55:00
3:15 PM,89.1,69.1,52,30.08,10.0,NE,6.9,-,N/A,,Clear,40,2013-08-23 20:15:00
3:35 PM,89.6,69.1,51,30.06,10.0,NNE,4.6,-,N/A,,Clear,20,2013-08-23 20:35:00
3:55 PM,89.8,69.6,51,30.06,10.0,NNE,6.9,-,N/A,,Clear,30,2013-08-23 20:55:00
4:15 PM,89.6,69.3,51,30.06,10.0,North,3.5,-,N/A,,Clear,10,2013-08-23 21:15:00
4:35 PM,89.1,69.4,52,30.06,10.0,North,5.8,-,N/A,,Clear,360,2013-08-23 21:35:00
4:55 PM,88.7,68.9,52,30.07,10.0,NNE,6.9,-,N/A,,Clear,20,2013-08-23 21:55:00
5:15 PM,89.1,68.0,50,30.07,10.0,North,3.5,-,N/A,,Clear,360,2013-08-23 22:15:00
5:35 PM,88.5,69.1,52,30.07,10.0,NE,4.6,-,N/A,,Clear,40,2013-08-23 22:35:00
5:55 PM,88.0,68.7,53,30.07,10.0,North,4.6,-,N/A,,Clear,10,2013-08-23 22:55:00
6:15 PM,87.3,69.1,55,30.07,10.0,NE,4.6,-,N/A,,Clear,50,2013-08-23 23:15:00
6:35 PM,86.4,69.4,57,30.07,10.0,ENE,3.5,-,N/A,,Clear,60,2013-08-23 23:35:00
6:55 PM,85.1,70.2,61,30.07,10.0,Calm,Calm,-,N/A,,Clear,0,2013-08-23 23:55:00
7:15 PM,83.3,70.9,66,30.08,10.0,ENE,3.5,-,N/A,,Clear,70,2013-08-24 00:15:00
7:35 PM,81.1,70.9,71,30.08,10.0,Calm,Calm,-,N/A,,Clear,0,2013-08-24 00:35:00
7:55 PM,78.4,71.8,80,30.09,10.0,Calm,Calm,-,N/A,,Clear,0,2013-08-24 00:55:00
8:15 PM,76.8,71.6,84,30.09,10.0,Calm,Calm,-,N/A,,Clear,0,2013-08-24 01:15:00
8:35 PM,75.9,70.9,84,30.10,10.0,Calm,Calm,-,N/A,,Clear,0,2013-08-24 01:35:00
8:55 PM,74.5,70.5,87,30.10,10.0,Calm,Calm,-,N/A,,Clear,0,2013-08-24 01:55:00
9:15 PM,73.8,70.2,88,30.11,10.0,Calm,Calm,-,N/A,,Clear,0,2013-08-24 02:15:00
9:35 PM,73.4,69.8,88,30.11,10.0,Calm,Calm,-,N/A,,Clear,0,2013-08-24 02:35:00
9:55 PM,72.5,69.3,90,30.11,10.0,Calm,Calm,-,N/A,,Clear,0,2013-08-24 02:55:00
10:15 PM,72.1,68.9,89,30.11,10.0,Calm,Calm,-,N/A,,Clear,0,2013-08-24 03:15:00
10:35 PM,71.6,68.5,90,30.11,10.0,Calm,Calm,-,N/A,,Clear,0,2013-08-24 03:35:00
10:55 PM,72.0,68.9,90,30.12,10.0,Calm,Calm,-,N/A,,Clear,0,2013-08-24 03:55:00
11:15 PM,72.1,68.5,88,30.12,10.0,Calm,Calm,-,N/A,,Clear,0,2013-08-24 04:15:00
11:35 PM,70.9,68.0,91,30.12,10.0,Calm,Calm,-,N/A,,Clear,0,2013-08-24 04:35:00
11:55 PM,70.0,67.3,91,30.12,10.0,Calm,Calm,-,N/A,,Clear,0,2013-08-24 04:55:00